TimeEDT,TemperatureF,Dew PointF,Humidity,Sea Level PressureIn,VisibilityMPH,Wind Direction,Wind SpeedMPH,Gust SpeedMPH,PrecipitationIn,Events,Conditions,WindDirDegrees,DateUTC
12:58 AM,58.5,51.1,76,30.04,10.0,SW,6.9,-,N/A,,Overcast,230,2013-09-16 04:58:00
1:58 AM,57.6,51.4,80,30.02,10.0,SW,5.8,-,N/A,,Overcast,230,2013-09-16 05:58:00
2:58 AM,56.5,51.1,82,30.00,10.0,WSW,5.8,-,N/A,,Overcast,240,2013-09-16 06:58:00
3:58 AM,56.7,51.4,83,30.00,10.0,WSW,8.1,-,N/A,,Overcast,240,2013-09-16 07:58:00
4:58 AM,56.5,52.0,85,30.00,10.0,WSW,1.2,-,N/A,,Overcast,240,2013-09-16 08:58:00
5:58 AM,55.6,51.8,87,30.02,10.0,WSW,5.8,-,N/A,,Mostly Cloudy,250,2013-09-16 09:58:00
6:58 AM,56.5,52.2,85,30.03,10.0,WSW,6.9,-,N/A,,Overcast,250,2013-09-16 10:58:00
7:58 AM,57.2,52.2,83,30.04,10.0,West,6.9,-,N/A,,Overcast,270,2013-09-16 11:58:00
8:24 AM,57.2,51.8,82,30.04,10.0,West,5.8,-,N/A,Rain,Light Rain,270,2013-09-16 12:24:00
8:58 AM,57.6,53.1,85,30.05,10.0,WSW,3.5,-,0.00,Rain,Light Rain,240,2013-09-16 12:58:00
9:58 AM,57.7,53.2,85,30.03,10.0,SSW,5.8,-,0.00,,Overcast,200,2013-09-16 13:58:00
10:58 AM,59.7,53.2,79,30.04,10.0,WSW,5.8,-,N/A,,Mostly Cloudy,240,2013-09-16 14:58:00
11:58 AM,61.9,53.6,74,30.03,10.0,SW,4.6,-,N/A,,Mostly Cloudy,220,2013-09-16 15:58:00
12:58 PM,63.9,53.6,69,30.03,10.0,West,4.6,-,N/A,,Mostly Cloudy,270,2013-09-16 16:58:00
1:58 PM,65.5,52.0,62,30.02,10.0,WNW,6.9,-,N/A,,Mostly Cloudy,290,2013-09-16 17:58:00
2:58 PM,64.4,51.8,64,30.03,10.0,NW,9.2,-,N/A,,Mostly Cloudy,310,2013-09-16 18:58:00
3:58 PM,62.8,51.1,66,30.03,10.0,WNW,10.4,-,N/A,,Mostly Cloudy,300,2013-09-16 19:58:00
4:58 PM,65.5,48.7,55,30.04,10.0,WNW,15.0,-,N/A,,Partly Cloudy,300,2013-09-16 20:58:00
5:58 PM,61.5,46.6,58,30.07,10.0,WNW,10.4,-,N/A,,Partly Cloudy,300,2013-09-16 21:58:00
6:58 PM,57.9,43.5,59,30.10,10.0,NW,13.8,-,N/A,,Scattered Clouds,320,2013-09-16 22:58:00
7:58 PM,53.8,39.2,58,30.14,10.0,NW,15.0,-,N/A,,Scattered Clouds,320,2013-09-16 23:58:00
8:58 PM,50.0,38.1,64,30.18,10.0,NNW,10.4,-,N/A,,Partly Cloudy,330,2013-09-17 00:58:00
9:58 PM,49.5,38.8,67,30.21,10.0,North,9.2,-,N/A,,Partly Cloudy,350,2013-09-17 01:58:00
10:58 PM,47.8,36.3,64,30.24,10.0,North,12.7,-,N/A,,Partly Cloudy,350,2013-09-17 02:58:00
11:58 PM,46.0,33.6,62,30.27,10.0,North,12.7,-,N/A,,Partly Cloudy,350,2013-09-17 03:58:00